This is the latest recevied weather packets stored in our database for station/object W5YIU-13. If no packets are shown the sender has not sent any weather packets the latest 1 day(s).
| Time | Temp. | Humidity | Pressure | Rain* | Wind** | Luminosity | Snow |
|---|---|---|---|---|---|---|---|
| 1778208173 | 22.22° C | 74% | 1008.9 hPa | 0 mm | - | 0 W/m² | - |
| 1778207874 | 22.22° C | 74% | 1008.9 hPa | 0 mm | - | 0 W/m² | - |
| 1778206971 | 22.22° C | 73% | 1008.6 hPa | 0 mm | - | 0 W/m² | - |
| 1778206670 | 22.22° C | 74% | 1008.4 hPa | 0 mm | - | 0 W/m² | - |
| 1778206368 | 22.78° C | 73% | 1008.6 hPa | 0 mm | - | 0 W/m² | - |
| 1778206067 | 22.78° C | 73% | 1008.6 hPa | 0 mm | - | 0 W/m² | - |
| 1778205774 | 22.78° C | 73% | 1008.6 hPa | 0 mm | - | 0 W/m² | - |
| 1778205468 | 22.78° C | 73% | 1008.7 hPa | 0 mm | - | 0 W/m² | - |
| 1778205168 | 22.78° C | 73% | 1008.6 hPa | 0 mm | - | 0 W/m² | - |
| 1778204869 | 22.78° C | 74% | 1008.5 hPa | 0 mm | - | 0 W/m² | - |
| 1778204568 | 22.78° C | 74% | 1008.4 hPa | 0 mm | - | 0 W/m² | - |
| 1778204268 | 22.78° C | 75% | 1008.4 hPa | 0 mm | - | 0 W/m² | - |
| 1778203968 | 23.33° C | 74% | 1008.5 hPa | 0 mm | - | 0 W/m² | - |
| 1778203668 | 23.33° C | 74% | 1008.6 hPa | 0 mm | - | 0 W/m² | - |
| 1778203368 | 23.33° C | 74% | 1008.6 hPa | 0 mm | - | 0 W/m² | - |
| 1778203069 | 23.33° C | 73% | 1008.5 hPa | 0 mm | - | 0 W/m² | - |
| 1778202769 | 23.33° C | 73% | 1008.5 hPa | 0 mm | - | 0 W/m² | - |
| 1778202469 | 23.33° C | 73% | 1008.3 hPa | 0 mm | - | 0 W/m² | - |
| 1778201866 | 23.89° C | 72% | 1008.3 hPa | 0 mm | - | 4 W/m² | - |
| 1778201567 | 23.89° C | 72% | 1008.3 hPa | 0 mm | - | 7 W/m² | - |
| 1778201266 | 23.89° C | 72% | 1008.3 hPa | 0 mm | - | 11 W/m² | - |
| 1778200966 | 23.89° C | 71% | 1008.3 hPa | 0 mm | - | 11 W/m² | - |
| 1778200669 | 23.89° C | 71% | 1008.2 hPa | 0 mm | - | 12 W/m² | - |
| 1778200069 | 24.44° C | 71% | 1008.2 hPa | 0 mm | - | 21 W/m² | - |
| 1778199765 | 24.44° C | 71% | 1008.4 hPa | 0 mm | - | 27 W/m² | - |
* Rain latest hour (hover to see other rain measurements)
** Current wind speed in m/s (hover to see current wind gust speed)